• In Italy
  • List of Countries
  • For 7 days
  • Water Temperature
  • Satellite Maps
  • Weather Map
  • Weather Widgets
  • user-avatar
    Login

    Hourly Weather Yeghegnadzor

    Today, 20 September, Thursday

    Time Temperature Precipitation Wind Pressure Humidity
    00:00 +17°C° 0 mm 2 mps 656 mmHg 76%
    01:00 +17°C° 0 mm 2 mps 656 mmHg 76%
    02:00 +16°C° 0 mm 2 mps 656 mmHg 77%
    03:00 +16°C° 0 mm 2 mps 656 mmHg 79%
    04:00 +16°C° 0 mm 2 mps 656 mmHg 79%
    05:00 +15°C° 0 mm 2 mps 656 mmHg 80%
    06:00 +15°C° 0 mm 2 mps 656 mmHg 80%
    07:00 +17°C° 0 mm 2 mps 657 mmHg 72%
    08:00 +19°C° 0 mm 1 mps 657 mmHg 64%
    09:00 +21°C° 0 mm 1 mps 658 mmHg 56%
    10:00 +22°C° 0 mm 1 mps 658 mmHg 52%
    11:00 +23°C° 0 mm 2 mps 658 mmHg 48%
    12:00 +24°C° 0 mm 2 mps 658 mmHg 44%
    13:00 +24°C° 0 mm 2 mps 658 mmHg 44%
    14:00 +25°C° 0 mm 2 mps 657 mmHg 44%
    15:00 +25°C° 0 mm 2 mps 657 mmHg 44%
    16:00 +24°C° 0.1 mm 2 mps 657 mmHg 49%
    17:00 +23°C° 0.1 mm 2 mps 657 mmHg 54%
    18:00 +22°C° 0.1 mm 1 mps 656 mmHg 58%
    19:00 +20°C° 0 mm 2 mps 656 mmHg 63%
    20:00 +19°C° 0 mm 2 mps 657 mmHg 67%
    21:00 +18°C° 0 mm 2 mps 657 mmHg 71%
    22:00 +18°C° 0 mm 2 mps 657 mmHg 72%
    23:00 +18°C° 0 mm 2 mps 657 mmHg 74%

    Tomorrow, 21 September, Friday

    Time Temperature Precipitation Wind Pressure Humidity
    00:00 +18°C° 0 mm 1 mps 656 mmHg 75%
    01:00 +18°C° 0 mm 1 mps 656 mmHg 77%
    02:00 +18°C° 0 mm 1 mps 656 mmHg 78%
    03:00 +16°C° 0 mm 1 mps 656 mmHg 79%
    04:00 +16°C° 0 mm 1 mps 656 mmHg 79%
    05:00 +16°C° 0 mm 1 mps 656 mmHg 80%
    06:00 +15°C° 0 mm 1 mps 656 mmHg 80%
    07:00 +18°C° 0 mm 1 mps 656 mmHg 72%
    08:00 +20°C° 0 mm 1 mps 657 mmHg 64%
    09:00 +22°C° 0 mm 1 mps 657 mmHg 56%
    10:00 +23°C° 0.4 mm 1 mps 657 mmHg 52%
    11:00 +24°C° 0.4 mm 2 mps 657 mmHg 47%
    12:00 +25°C° 0.4 mm 2 mps 657 mmHg 43%
    13:00 +25°C° 0.7 mm 2 mps 657 mmHg 42%
    14:00 +25°C° 0.7 mm 2 mps 656 mmHg 41%
    15:00 +26°C° 0.7 mm 2 mps 656 mmHg 39%
    16:00 +24°C° 0.3 mm 2 mps 655 mmHg 44%
    17:00 +23°C° 0.3 mm 1 mps 655 mmHg 48%
    18:00 +22°C° 0.3 mm 1 mps 655 mmHg 52%
    19:00 +21°C° 0 mm 1 mps 655 mmHg 55%
    20:00 +20°C° 0 mm 1 mps 655 mmHg 58%
    21:00 +20°C° 0 mm 1 mps 656 mmHg 61%
    22:00 +19°C° 0.1 mm 1 mps 656 mmHg 63%
    23:00 +19°C° 0.1 mm 1 mps 656 mmHg 64%

    Day after tomorrow, 22 September, Saturday

    Time Temperature Precipitation Wind Pressure Humidity
    00:00 +19°C° 0.1 mm 1 mps 656 mmHg 65%
    01:00 +18°C° 0.1 mm 1 mps 656 mmHg 66%
    02:00 +18°C° 0.1 mm 1 mps 656 mmHg 66%
    03:00 +16°C° 0.1 mm 1 mps 655 mmHg 67%
    04:00 +16°C° 0.1 mm 1 mps 655 mmHg 67%
    05:00 +16°C° 0.1 mm 1 mps 655 mmHg 67%
    06:00 +16°C° 0.1 mm 1 mps 655 mmHg 67%
    07:00 +19°C° 0 mm 1 mps 656 mmHg 59%
    08:00 +21°C° 0 mm 1 mps 656 mmHg 52%
    09:00 +23°C° 0 mm 1 mps 657 mmHg 44%
    10:00 +24°C° 0.1 mm 2 mps 657 mmHg 41%
    11:00 +25°C° 0.1 mm 2 mps 657 mmHg 37%
    12:00 +26°C° 0.1 mm 2 mps 657 mmHg 34%
    13:00 +26°C° 0.6 mm 2 mps 656 mmHg 33%
    14:00 +26°C° 0.6 mm 2 mps 656 mmHg 33%
    15:00 +26°C° 0.6 mm 2 mps 656 mmHg 32%
    16:00 +25°C° 0.4 mm 2 mps 656 mmHg 37%
    17:00 +23°C° 0.4 mm 1 mps 655 mmHg 43%
    18:00 +22°C° 0.4 mm 1 mps 655 mmHg 49%
    19:00 +21°C° 0.1 mm 1 mps 655 mmHg 52%
    20:00 +20°C° 0.1 mm 1 mps 655 mmHg 55%
    21:00 +20°C° 0.1 mm 1 mps 656 mmHg 59%
    22:00 +19°C° 0 mm 1 mps 656 mmHg 60%
    23:00 +19°C° 0 mm 1 mps 656 mmHg 61%

    23 September, Sunday

    Time Temperature Precipitation Wind Pressure Humidity
    00:00 +19°C° 0 mm 1 mps 656 mmHg 62%
    01:00 +18°C° 0 mm 1 mps 655 mmHg 63%
    02:00 +18°C° 0 mm 1 mps 655 mmHg 64%
    03:00 +18°C° 0 mm 1 mps 655 mmHg 65%
    04:00 +16°C° 0 mm 1 mps 655 mmHg 65%
    05:00 +16°C° 0 mm 1 mps 655 mmHg 66%
    06:00 +16°C° 0 mm 1 mps 655 mmHg 67%
    07:00 +18°C° 0 mm 1 mps 655 mmHg 60%
    08:00 +20°C° 0 mm 1 mps 656 mmHg 52%
    09:00 +22°C° 0 mm 1 mps 656 mmHg 45%
    10:00 +23°C° 0 mm 2 mps 656 mmHg 42%
    11:00 +24°C° 0 mm 2 mps 656 mmHg 38%
    12:00 +25°C° 0 mm 2 mps 656 mmHg 35%
    13:00 +26°C° 0.3 mm 2 mps 656 mmHg 34%
    14:00 +26°C° 0.3 mm 2 mps 655 mmHg 33%
    15:00 +26°C° 0.3 mm 2 mps 655 mmHg 32%
    16:00 +24°C° 0.2 mm 2 mps 654 mmHg 37%
    17:00 +23°C° 0.2 mm 2 mps 654 mmHg 41%
    18:00 +22°C° 0.2 mm 1 mps 654 mmHg 45%
    19:00 +21°C° 0 mm 1 mps 654 mmHg 49%
    20:00 +20°C° 0 mm 1 mps 654 mmHg 52%
    21:00 +19°C° 0 mm 1 mps 654 mmHg 56%
    22:00 +19°C° 0.1 mm 1 mps 654 mmHg 57%
    23:00 +19°C° 0.1 mm 1 mps 654 mmHg 59%

    24 September, Monday

    Time Temperature Precipitation Wind Pressure Humidity
    00:00 +18°C° 0.1 mm 1 mps 654 mmHg 60%
    01:00 +18°C° 0 mm 1 mps 654 mmHg 63%
    02:00 +16°C° 0 mm 1 mps 654 mmHg 65%
    03:00 +16°C° 0 mm 1 mps 654 mmHg 68%
    04:00 +16°C° 0 mm 1 mps 654 mmHg 69%
    05:00 +15°C° 0 mm 1 mps 654 mmHg 70%
    06:00 +15°C° 0 mm 1 mps 654 mmHg 71%
    07:00 +18°C° 0 mm 1 mps 655 mmHg 65%
    08:00 +18°C° 0 mm 2 mps 655 mmHg 58%
    09:00 +20°C° 0 mm 2 mps 656 mmHg 51%
    10:00 +21°C° 0.1 mm 2 mps 656 mmHg 47%
    11:00 +23°C° 0.1 mm 2 mps 656 mmHg 44%
    12:00 +24°C° 0.1 mm 3 mps 656 mmHg 40%
    13:00 +24°C° 0.1 mm 3 mps 655 mmHg 38%
    14:00 +24°C° 0.1 mm 3 mps 655 mmHg 36%
    15:00 +25°C° 0.1 mm 3 mps 655 mmHg 35%
    16:00 +23°C° 0 mm 2 mps 655 mmHg 40%
    17:00 +21°C° 0 mm 2 mps 654 mmHg 45%
    18:00 +20°C° 0 mm 1 mps 654 mmHg 50%
    19:00 +20°C° 0 mm 1 mps 654 mmHg 54%
    20:00 +19°C° 0 mm 1 mps 655 mmHg 59%
    21:00 +18°C° 0 mm 1 mps 655 mmHg 64%
    22:00 +18°C° 0 mm 1 mps 655 mmHg 65%
    23:00 +16°C° 0 mm 1 mps 655 mmHg 67%

    25 September, Tuesday

    Time Temperature Precipitation Wind Pressure Humidity
    00:00 +16°C° 0 mm 1 mps 654 mmHg 69%
    01:00 +16°C° 0 mm 1 mps 654 mmHg 69%
    02:00 +16°C° 0 mm 1 mps 654 mmHg 68%
    03:00 +15°C° 0 mm 1 mps 654 mmHg 68%
    04:00 +15°C° 0 mm 1 mps 654 mmHg 67%
    05:00 +15°C° 0 mm 1 mps 654 mmHg 66%
    06:00 +14°C° 0 mm 1 mps 654 mmHg 64%
    07:00 +18°C° 0 mm 1 mps 655 mmHg 55%
    08:00 +20°C° 0 mm 1 mps 655 mmHg 46%
    09:00 +22°C° 0 mm 1 mps 656 mmHg 38%
    10:00 +24°C° 0 mm 1 mps 656 mmHg 35%
    11:00 +25°C° 0 mm 2 mps 656 mmHg 32%
    12:00 +26°C° 0 mm 2 mps 656 mmHg 29%
    13:00 +26°C° 0 mm 2 mps 655 mmHg 29%
    14:00 +27°C° 0 mm 2 mps 655 mmHg 28%
    15:00 +27°C° 0 mm 2 mps 655 mmHg 27%
    16:00 +25°C° 0 mm 2 mps 654 mmHg 32%
    17:00 +23°C° 0 mm 1 mps 654 mmHg 37%
    18:00 +22°C° 0 mm 1 mps 654 mmHg 42%
    19:00 +21°C° 0 mm 1 mps 654 mmHg 47%
    20:00 +19°C° 0 mm 2 mps 654 mmHg 52%
    21:00 +19°C° 0 mm 2 mps 655 mmHg 57%
    22:00 +18°C° 0 mm 2 mps 655 mmHg 60%
    23:00 +18°C° 0 mm 2 mps 655 mmHg 63%
    Show more